sat.trackr.live / text

‹ back to catalog

STARLINK-36474

NORAD 67353 · 2026-003V

PAYLOAD ACTIVE UNKNOWN

§ Identity

Operator
Country
US
Launch date
2026-01-09
Launch site
AFETR
Launch vehicle
Mass (kg)
RCS (m²)

Purposes: comms

External: N2YO · Heavens-Above · Gunter

§ Orbital elements

Epoch: 2026-09-19T21:59:25.628640Z

Period
94.27 min
Inclination
43.0015°
Eccentricity
0.0001299
Mean motion
15.27591177 rev/d
Perigee alt
482.1 km
Apogee alt
483.9 km
Semi-major
6,861.2 km
B*
4.7708e-4
RAAN
210.5851°
Arg perigee
264.3129°
Mean anomaly
95.7575°
Rev number
3,852

§ Raw data

STARLINK-364741 67353U 26003V   26262.91626885  .00012894  00000+0  47708-3 0  99902 67353  43.0015 210.5851 0001299 264.3129  95.7575 15.27591177 38520

JSON: /api/v1/satellites/67353 · /tle

For live sub-satellite position, see the globe view (requires WebGL).

§ Visibility from observer

Set your observer location to see the next 7 days of passes ≥ 10°. The values pass through the URL so the page stays shareable.

No JS? Fill the form by hand. The geolocation button needs JavaScript.